Theta_e
306 306 306 307 307 307 306 308 309 311 307 312 307 305 303 302 303 302 301 300 299 299 299 298 297 296 293 293 293 292 292 292 290 290 290 291 291 290 289 289 290 290 290 290
307 307 307 307 307 307 307 306 308 306 307 307 303 302 303 303 303 302 301 300 299 299 298 297 295 293 292 292 292 292 292 291 290 290 290 291 290 290 288 288 289 289 290 290
308 307 307 307 308 307 307 307 306 307 311 305 303 303 303 303 303 301 300 299 299 298 297 295 293 292 292 292 292 292 291 291 291 291 291 291 290 288 288 288 289 289 289 289
307 307 309 310 305 307 307 307 307 306 305 304 304 303 303 303 302 300 300 299 298 297 295 293 292 292 292 292 292 291 291 290 290 290 290 290 288 288 287 288 288 289 288 289
308 308 309 308 306 305 305 306 306 306 305 304 303 303 305 302 301 300 299 298 297 295 293 292 292 292 292 292 292 291 291 290 290 290 289 288 287 287 287 288 288 289 288 288
309 308 308 309 306 305 305 307 306 305 305 304 304 306 306 303 301 300 299 298 295 293 293 292 292 291 291 291 291 291 291 290 290 289 287 287 286 287 287 287 288 288 288 288
310 310 311 309 305 304 306 311 305 304 304 304 305 304 303 301 300 299 298 296 294 293 292 292 292 291 291 291 290 290 291 291 289 288 286 286 286 287 287 287 287 287 287 287
309 311 313 307 305 305 308 305 304 304 304 304 304 303 302 300 300 299 297 295 293 293 292 292 291 291 291 290 290 290 290 290 290 288 287 287 286 286 287 287 287 287 287 287
311 314 310 306 307 305 305 305 304 304 304 303 303 303 301 300 300 298 296 294 293 292 292 292 291 290 290 290 290 290 289 289 290 288 286 286 286 286 286 286 286 285 286 286
309 309 308 306 305 305 304 304 304 304 304 303 303 302 301 300 299 297 295 294 293 292 292 292 291 290 290 289 289 289 288 289 289 287 286 286 286 286 285 285 285 284 284 285
308 307 305 306 305 305 304 304 304 304 303 303 302 302 301 300 298 296 294 293 292 292 292 292 290 290 289 289 288 287 288 288 288 287 286 286 285 285 285 285 284 284 283 283
310 308 308 306 305 304 304 304 304 303 303 303 302 302 301 299 297 295 294 293 292 292 292 291 290 290 289 288 288 287 288 288 287 286 285 285 285 285 285 285 284 284 283 283
307 306 306 305 304 304 304 304 303 304 303 302 302 301 300 299 296 294 294 293 292 292 292 291 289 289 289 288 287 286 287 286 285 284 284 284 285 285 285 285 284 284 283 283
305 305 305 304 304 303 303 303 303 303 303 302 302 300 299 297 295 295 294 293 293 292 292 288 288 288 288 286 286 284 284 284 283 283 284 283 284 284 284 284 284 284 284 284
304 304 304 304 303 303 303 303 303 303 303 302 301 300 298 297 296 295 294 294 294 293 293 289 288 286 286 285 284 284 284 284 283 284 283 283 283 283 283 283 284 283 283 284
303 303 303 302 303 303 303 303 303 302 302 302 300 299 298 296 295 294 295 295 294 293 292 289 287 287 286 285 284 284 284 284 283 285 285 284 283 283 283 283 283 283 283 282
303 303 302 303 303 303 303 303 303 302 302 301 300 299 297 296 294 295 295 294 294 293 291 290 288 287 286 286 285 286 285 284 285 286 285 285 284 283 282 282 282 282 282 281
303 304 303 303 303 303 303 303 302 302 302 301 300 298 297 295 294 295 295 294 293 292 291 290 288 288 288 287 286 285 285 285 285 285 284 284 283 283 283 282 281 281 280 280
303 304 304 303 304 303 303 303 302 302 301 300 299 298 296 294 295 296 295 295 294 293 291 291 289 289 288 286 283 285 285 284 284 284 283 282 283 282 282 281 280 280 279 279
302 304 304 303 303 303 302 302 301 301 300 299 298 296 295 295 295 296 295 294 294 292 291 291 290 289 288 286 283 286 285 283 283 282 282 282 281 281 281 281 280 279 279 279
302 303 303 303 302 302 302 300 300 299 299 298 298 295 295 296 296 296 295 295 294 293 292 291 290 289 287 286 284 285 284 282 282 282 281 280 280 280 280 279 279 278 278 278
303 302 302 301 301 301 300 300 299 299 298 298 295 296 297 297 297 296 295 294 295 294 293 292 290 289 288 286 285 282 281 281 280 280 280 279 279 279 279 278 278 277 277 277
302 302 301 301 301 300 299 299 299 299 298 296 296 297 297 297 297 296 296 296 295 294 293 291 290 289 289 287 283 282 281 281 280 279 279 278 278 277 277 277 277 276 276 276
302 302 301 301 300 299 299 299 299 297 296 297 298 298 297 297 297 297 296 296 295 294 292 292 290 289 288 287 284 282 281 280 280 279 278 278 277 277 277 277 276 276 276 276
303 302 301 300 301 301 300 300 298 298 298 298 297 297 298 297 297 296 295 294 295 293 293 292 290 289 288 287 284 282 281 280 280 279 278 278 277 277 277 277 277 276 276 276
302 302 301 301 301 301 300 300 300 300 300 300 300 298 297 297 295 293 293 294 295 293 291 290 289 288 288 287 284 281 281 280 280 279 278 278 278 278 277 277 277 276 276 276
301 301 301 301 300 301 301 301 301 301 300 300 300 299 297 293 292 292 292 294 294 292 290 289 288 288 287 286 284 281 281 280 280 279 278 278 278 278 277 277 277 276 276 276
Wind_Speed
6 1 5 8 9 12 9 9 6 1 4 3 6 9 10 11 13 14 15 17 20 22 23 23 23 23 22 22 22 23 23 24 24 23 24 25 25 29 25 23 23 24 25 28
5 6 7 12 13 14 16 15 10 15 15 10 11 10 10 12 12 13 15 17 20 21 22 21 22 21 21 21 21 22 23 23 25 24 25 25 25 25 26 23 23 25 26 25
2 3 6 11 16 18 15 10 14 11 6 8 10 10 10 9 9 11 14 18 19 19 20 20 20 19 20 20 20 21 22 23 24 24 25 25 25 24 26 25 24 25 24 26
2 3 4 1 3 15 14 12 15 14 11 11 9 8 8 7 7 11 13 16 17 18 18 17 17 18 19 18 19 19 22 23 24 25 24 25 25 27 27 26 24 25 27 24
3 8 11 9 10 9 9 12 16 14 13 9 6 8 4 1 5 8 10 12 14 15 14 15 16 18 18 18 19 20 22 23 23 25 24 25 26 27 27 27 25 24 26 24
4 4 4 4 7 11 2 9 15 13 9 6 5 7 11 4 4 6 8 11 12 13 12 13 16 17 17 18 18 20 22 23 23 24 23 23 24 24 24 24 25 24 24 24
7 4 7 1 13 10 3 3 11 9 7 7 6 5 6 4 3 5 8 10 10 11 11 12 14 16 17 17 18 20 20 21 22 22 23 21 23 23 23 24 25 24 25 26
8 6 9 12 13 7 1 5 8 8 7 6 6 4 3 2 3 5 9 10 9 9 10 12 13 14 16 17 18 19 19 19 20 22 22 22 23 23 22 23 24 25 25 26
9 5 6 19 6 17 5 6 7 7 6 6 6 5 3 3 3 5 8 9 8 9 9 10 12 13 15 17 18 19 18 18 19 20 21 21 23 23 24 23 24 26 27 29
4 12 17 15 22 8 12 10 9 8 7 7 7 5 4 3 3 5 7 7 7 8 9 10 12 12 14 16 17 17 17 17 17 19 21 19 21 21 22 23 24 24 27 27
11 14 6 15 21 24 16 14 12 10 9 9 8 7 5 4 3 4 5 5 6 7 8 9 11 12 13 15 16 17 16 17 17 16 18 17 18 19 20 18 22 21 23 24
5 10 14 4 17 21 23 18 15 13 11 11 9 7 6 5 3 2 4 4 5 7 7 9 10 11 13 14 16 16 16 16 17 16 17 17 18 19 16 16 18 20 19 22
18 9 12 9 8 13 22 21 17 14 13 13 10 8 7 5 4 4 3 4 5 6 7 7 9 10 12 14 14 15 14 16 16 15 17 17 18 19 20 20 18 19 19 22
19 16 12 12 10 9 14 16 14 14 14 13 12 10 9 6 6 3 4 5 8 7 9 11 10 9 12 15 13 16 16 17 15 17 16 17 17 18 19 19 22 22 21 22
17 17 15 10 14 11 13 14 14 15 15 14 13 12 9 8 6 5 6 9 10 10 10 13 11 13 15 19 17 15 16 15 18 14 20 17 17 17 17 17 18 20 23 23
19 18 17 15 13 16 15 16 16 16 16 16 15 12 10 10 9 8 9 10 9 7 12 12 12 14 16 18 18 17 15 14 16 14 15 17 19 17 17 18 18 17 19 24
16 21 21 19 17 17 17 17 16 16 17 17 15 13 12 10 9 9 9 10 10 10 11 11 11 13 16 16 16 14 18 14 16 14 14 15 16 18 18 18 19 17 17 19
17 16 19 19 19 18 18 17 17 17 18 17 16 16 15 11 9 8 8 9 10 11 11 10 11 12 14 12 12 11 14 12 12 12 14 14 14 15 16 16 16 18 19 19
20 18 17 18 19 19 19 17 17 17 18 21 19 16 10 10 10 9 8 9 10 11 10 10 10 11 7 14 12 8 10 11 11 11 12 13 13 13 14 15 15 16 18 19
21 18 17 19 18 19 18 16 17 20 21 18 15 14 12 12 12 11 10 10 10 7 10 11 10 7 10 9 15 6 9 10 10 11 12 12 12 13 13 14 15 15 16 16
23 20 21 21 20 20 18 17 17 19 17 16 15 12 10 10 13 14 15 14 10 10 10 11 9 6 6 9 9 8 9 11 11 11 12 12 12 12 12 13 13 13 14 15
24 23 25 22 19 17 16 16 16 16 16 15 13 12 13 13 15 17 17 14 11 15 12 11 8 9 10 12 7 10 9 11 11 11 11 12 12 11 12 12 13 13 14 15
23 22 25 21 16 14 16 17 17 16 14 13 12 12 13 14 15 15 16 15 18 15 13 11 11 12 12 12 11 11 11 11 11 12 12 13 13 13 13 13 15 14 16 17
20 18 19 17 14 15 18 17 15 14 13 14 14 14 15 16 16 17 15 16 17 15 13 14 12 14 12 13 11 10 10 10 11 13 13 13 13 13 14 15 16 16 17 17
18 17 16 17 16 14 12 11 12 12 13 15 16 16 15 16 17 15 16 16 15 15 15 14 15 13 12 13 12 10 9 10 11 12 12 13 13 14 15 16 17 17 18 18
17 15 15 15 13 11 11 11 11 10 10 11 11 14 15 14 16 16 16 14 13 14 15 13 13 12 12 13 12 10 10 10 11 11 11 12 12 13 14 15 16 17 18 18
14 15 13 13 12 12 11 11 10 11 13 11 12 14 14 14 14 14 14 13 14 14 15 15 12 12 13 13 12 11 10 11 10 11 11 11 11 12 13 14 15 16 17 18
Wind_Direction
245 232 232 212 208 208 203 239 239 40 256 262 272 265 274 302 306 328 332 338 340 340 340 340 338 336 338 339 342 345 346 345 348 347 346 344 345 343 347 351 349 351 348 347
242 227 247 251 241 229 221 233 248 267 273 256 263 274 281 293 321 329 336 340 341 340 342 341 340 339 341 343 344 347 347 349 351 351 349 348 347 343 346 353 357 353 351 346
250 176 319 281 240 233 225 224 227 251 234 243 259 270 286 305 328 336 339 343 343 343 342 341 342 343 343 344 344 348 349 351 351 350 349 348 347 346 351 357 356 355 352 353
274 169 254 327 332 204 230 233 223 238 250 254 267 277 296 289 335 338 342 344 343 342 340 342 343 344 345 346 345 350 350 352 352 348 348 343 347 350 354 1 357 357 354 357
227 224 280 224 213 192 211 251 235 234 235 243 251 287 181 87 348 347 342 345 342 341 342 344 344 346 348 348 346 350 350 349 350 346 345 342 349 351 356 358 357 353 355 356
215 256 260 45 129 179 167 274 222 211 223 233 235 270 105 15 349 349 345 343 341 344 345 345 348 348 351 351 348 351 351 348 348 344 345 348 351 355 357 358 357 356 357 358
221 272 288 193 149 150 199 23 163 193 211 227 249 321 346 341 337 343 347 341 345 347 347 348 349 350 353 351 352 349 349 348 348 347 351 350 351 355 355 357 357 1 1 1
216 227 249 173 152 205 118 148 186 200 216 239 265 270 287 300 329 335 338 336 340 345 346 349 349 351 353 352 351 348 350 349 351 349 351 350 355 355 359 355 357 359 1 6
204 222 239 186 197 210 209 205 203 213 216 228 241 243 258 286 304 326 335 334 335 337 346 345 348 351 351 350 350 351 349 354 354 346 357 354 359 358 359 360 360 359 1 2
197 242 225 213 220 217 215 217 211 214 224 226 237 230 244 258 280 319 328 329 329 338 340 344 346 350 350 349 349 349 355 355 351 348 356 356 1 1 2 358 359 357 358 0
242 245 227 229 225 223 222 218 221 225 230 231 230 227 235 240 261 306 323 322 328 337 338 339 345 349 348 349 348 350 356 352 347 353 351 355 359 3 0 359 358 355 355 356
215 225 212 247 223 222 220 218 223 231 232 222 223 225 225 230 233 289 297 314 327 331 332 335 344 346 347 346 347 350 354 345 344 352 350 353 354 358 6 358 2 0 1 357
232 241 226 242 232 226 220 220 227 233 223 214 214 211 211 218 225 264 285 305 322 324 329 332 340 343 342 345 345 343 349 339 347 346 350 351 352 352 353 7 8 2 5 7
232 229 232 226 229 217 205 212 217 220 211 209 206 198 192 194 234 238 264 284 307 314 315 326 332 336 335 339 340 341 348 347 350 350 351 352 351 350 353 355 360 1 7 7
220 220 221 232 224 211 215 212 202 201 199 199 198 194 192 193 212 231 268 300 309 310 316 326 330 331 333 339 342 346 349 348 350 0 345 353 355 354 351 356 356 358 359 9
223 219 219 223 220 212 205 199 199 199 200 198 196 193 194 211 239 263 284 295 299 282 300 309 320 326 333 337 344 353 351 341 355 1 346 349 349 351 351 354 356 357 358 357
202 203 208 211 210 204 202 201 205 208 205 200 198 194 194 230 241 259 283 294 298 303 311 312 318 327 333 339 353 350 326 350 357 343 339 341 345 347 349 352 351 351 356 353
207 203 204 202 199 198 200 203 207 207 202 200 196 200 216 238 244 259 285 292 296 305 309 306 309 320 333 337 317 329 328 346 340 341 338 336 344 343 344 345 347 347 348 353
200 195 196 198 195 197 202 207 204 203 199 201 210 221 232 235 243 256 280 288 297 300 306 310 313 320 330 312 336 350 327 337 338 340 341 341 341 342 345 342 345 346 350 354
198 195 191 185 186 190 192 195 195 198 208 213 210 217 229 236 242 249 268 284 294 276 278 301 309 307 308 314 339 340 324 332 340 342 339 349 344 347 345 343 349 348 351 352
190 186 174 172 173 181 192 208 210 212 214 213 220 232 235 242 247 253 260 273 288 275 288 295 297 283 295 306 327 302 321 334 339 344 343 346 347 346 346 346 347 349 350 350
182 181 182 179 187 195 208 208 210 211 211 216 221 225 233 248 258 261 263 259 254 278 290 302 287 281 299 318 301 306 320 322 334 341 342 344 346 346 346 346 348 349 350 349
178 183 182 188 197 208 203 202 207 210 217 220 228 240 251 261 268 268 266 273 255 276 291 283 291 301 297 307 304 309 316 325 334 339 343 343 347 348 348 348 352 351 349 350
175 178 183 192 191 190 196 201 206 216 222 232 241 250 255 261 266 266 264 260 264 260 262 273 294 298 289 301 304 305 314 323 331 338 340 342 346 349 352 351 350 351 350 352
174 173 183 181 176 185 190 197 207 220 232 243 251 256 254 259 267 272 272 273 265 255 264 281 283 283 281 295 298 300 306 315 326 330 334 340 345 348 349 350 350 350 353 353
170 174 179 183 179 185 194 203 209 217 221 229 236 249 259 263 268 270 272 266 254 252 268 286 280 271 277 290 291 292 298 306 316 325 331 335 339 343 348 349 351 352 352 354
172 175 172 181 187 191 201 209 214 218 228 225 229 248 265 270 271 270 268 258 253 258 270 284 280 269 275 284 282 284 289 298 307 315 323 327 331 338 343 347 349 351 353 354